sat.trackr.live / text

‹ back to catalog

GREENCUBE (IO-117)

NORAD 53109 · 2022-080E

PAYLOAD ACTIVE UNKNOWN

§ Identity

Operator
Country
IT
Launch date
2022-07-13
Launch site
FRGUI
Launch vehicle
Mass (kg)
RCS (m²)

Purposes: comms, tech_demo

External: N2YO · Heavens-Above · Gunter

§ Orbital elements

Epoch: 2026-09-19T11:59:53.361888Z

Period
224.10 min
Inclination
70.1205°
Eccentricity
0.0009216
Mean motion
6.42583827 rev/d
Perigee alt
5,831.8 km
Apogee alt
5,854.4 km
Semi-major
12,221.2 km
B*
0.0000e+0
RAAN
265.4390°
Arg perigee
269.3094°
Mean anomaly
90.6509°
Rev number
9,812

§ Raw data

GREENCUBE (IO-117)1 53109U 22080E   26262.49992317 -.00000003  00000+0  00000+0 0  99942 53109  70.1205 265.4390 0009216 269.3094  90.6509  6.42583827 98129

JSON: /api/v1/satellites/53109 · /tle

For live sub-satellite position, see the globe view (requires WebGL).

§ Visibility from observer

Set your observer location to see the next 7 days of passes ≥ 10°. The values pass through the URL so the page stays shareable.

No JS? Fill the form by hand. The geolocation button needs JavaScript.

§ Radio — SatNOGS DB

ModeDescriptionDownlinkUplink
AFSK Mode U TLM 1k2 AFSK AX25 (inactive) 436.750 MHz
GMSK Mode U TLM 2k4 GMSK AX25 (inactive) 436.750 MHz
GMSK Mode U TLM 9k6 GMSK AX25 (inactive) 436.750 MHz

3 transmitters · refreshed weekly from db.satnogs.org